Regional Weather Roundup
Issued by NWS

Home | Current Version | Previous Version | Text Only | Print | Product List | Glossary Off
Versions: 1 2 3 4 5 6 7 8 9 10 11 12 13 14 15 16 17 18 19 20 21 22 23 24 25 26 27 28 29 30 31 32 33 34 35 36 37 38 39 40 41 42 43 44 45 46 47 48 49 50

008
ASUS43 KFSD 011710
RWRSD

WEATHER ROUNDUP FOR SOUTH DAKOTA
NATIONAL WEATHER SERVICE SIOUX FALLS SD
1100 AM CST WED MAR 01 2017

NOTE: "FAIR" INDICATES FEW OR NO CLOUDS BELOW 12,000 FEET WITH NO
SIGNIFICANT WEATHER AND/OR OBSTRUCTIONS TO VISIBILITY.


SDZ001>005-009-010-012>017-011800-
NORTHWEST AND NORTH CENTRAL SOUTH DAKOTA

CITY           SKY/WX    TMP DP  RH WIND       PRES   REMARKS
BUFFALO          N/A     26  18  71 W16       30.01R WCI  14
FAITH            N/A     26  19  74 NW12      30.10R WCI  16
MOBRIDGE       CLOUDY    27  18  69 N14       30.07R WCI  16
$$

SDZ012>016-024>037-041>051-057-063-072>074-011800-
SOUTHWEST AND SOUTH CENTRAL SOUTH DAKOTA

CITY           SKY/WX    TMP DP  RH WIND       PRES   REMARKS
RAPID CTY ARPT SUNNY     34  12  40 N17G24    30.10R WCI  23
PIERRE         PTSUNNY   30  21  69 NW23G31   30.10R WCI  17
CUSTER         SUNNY     24   4  42 W22G32    30.01R WCI   9
ELLSWORTH AFB  SUNNY     34  10  38 NW16      30.08S WCI  23
PHILIP         MOSUNNY   29  22  75 NW17      30.15R WCI  17
PINE RIDGE     SUNNY     29  18  63 W16       30.14R WCI  17
SPEARFISH      FAIR      30   9  40 W23       30.06R WCI  17
WINNER         CLOUDY    35  22  58 NW25G36   30.11R WCI  23
$$

SDZ004>011-016>023-039-040-011800-
NORTHEAST SOUTH DAKOTA

CITY           SKY/WX    TMP DP  RH WIND       PRES   REMARKS
ABERDEEN       LGT SNOW  26  19  74 N13       30.07R WCI  15
WATERTOWN      MOSUNNY   28  20  71 NW15      29.99R WCI  16
BROOKINGS      MOSUNNY   29  21  72 NW18      29.97R WCI  16
SISSETON         N/A     23  18  81 N20       30.02R WCI   8
$$

SDZ017-020-022-023-036>040-048>070-011800-
SOUTHEAST SOUTH DAKOTA

CITY           SKY/WX    TMP DP  RH WIND       PRES   REMARKS
SIOUX FALLS    MOSUNNY   29  21  72 NW22G28   30.02R WCI  15
HURON          CLOUDY    26  22  84 NW15      30.07R WCI  14
CHAMBERLAIN    CLOUDY    32  27  80 NW18G25   30.10R WCI  21
MITCHELL       LGT SNOW  29  26  89 W15       30.08R VSB 3/4 WCI  18
YANKTON        CLOUDY    30  25  80 W23       30.06  WCI  17
$$

ABBREVIATIONS USED IN REMARKS
   TC - TEMPERATURE IN CELSIUS
  WCI - WIND CHILL INDEX
   HX - HEAT INDEX
  VSB - VISIBILITY





USA.gov is the U.S. government's official web portal to all federal, state and local government web resources and services.